PTSHY SBDN-SBBW

Flight info

Callsign PTSHY
Flight time 2h 9m
Altitude 7000
Route XOLUG DCT JTI
Aircraft E110/L-SDG/C

Departure

Time 2026-04-27 16:45
Airport Presidente Prudente Airport (SBDN)

Arrival

Time 2026-04-27 18:54
Airport Barra do Garças Airport (SBBW)
Time Latitude Longitude Altitude Speed Heading
2026-04-27 16:27 -22.17823 -51.41658 1470 ft 0 kts 188°
2026-04-27 16:31 -22.17824 -51.41658 1469 ft 0 kts 188°
2026-04-27 16:32 -22.17811 -51.41656 1470 ft 2 kts 188°
2026-04-27 16:32 -22.17796 -51.41654 1470 ft 2 kts 191°
2026-04-27 16:33 -22.17780 -51.41648 1470 ft 1 kts 202°
2026-04-27 16:33 -22.17771 -51.41644 1470 ft 1 kts 208°
2026-04-27 16:33 -22.17764 -51.41639 1470 ft 0 kts 208°
2026-04-27 16:41 -22.17772 -51.41643 1470 ft 2 kts 195°
2026-04-27 16:42 -22.17779 -51.41627 1470 ft 4 kts 69°
2026-04-27 16:42 -22.17769 -51.41589 1471 ft 6 kts 86°
2026-04-27 16:42 -22.17763 -51.41534 1472 ft 8 kts 69°
2026-04-27 16:42 -22.17749 -51.41505 1472 ft 3 kts 57°
2026-04-27 16:43 -22.17724 -51.41483 1473 ft 5 kts 22°
2026-04-27 16:43 -22.17681 -51.41479 1473 ft 3 kts 354°
2026-04-27 16:43 -22.17641 -51.41502 1472 ft 5 kts 292°
2026-04-27 16:43 -22.17634 -51.41534 1471 ft 0 kts 278°
2026-04-27 16:44 -22.17627 -51.41585 1471 ft 35 kts 277°
2026-04-27 16:44 -22.17553 -51.42122 1454 ft 100 kts 279°
2026-04-27 16:44 -22.17472 -51.42974 1496 ft 119 kts 275°
2026-04-27 16:44 -22.17483 -51.43910 1670 ft 126 kts 269°
2026-04-27 16:45 -22.17437 -51.44879 1841 ft 131 kts 282°
2026-04-27 16:45 -22.17176 -51.45806 2095 ft 129 kts 290°
2026-04-27 16:45 -22.16935 -51.46802 2175 ft 143 kts 284°
2026-04-27 16:45 -22.16756 -51.47844 2276 ft 151 kts 281°
2026-04-27 16:46 -22.16589 -51.48967 2434 ft 153 kts 281°
2026-04-27 16:46 -22.16429 -51.50111 2607 ft 154 kts 280°
2026-04-27 16:46 -22.16265 -51.51297 2798 ft 157 kts 280°
2026-04-27 16:46 -22.15759 -51.52318 2974 ft 157 kts 319°
2026-04-27 16:47 -22.14852 -51.52977 3168 ft 158 kts 327°
2026-04-27 16:47 -22.13882 -51.53601 3315 ft 161 kts 328°
2026-04-27 16:47 -22.12896 -51.54215 3475 ft 162 kts 329°
2026-04-27 16:47 -22.11914 -51.54816 3643 ft 162 kts 329°
2026-04-27 16:48 -22.10916 -51.55425 3806 ft 162 kts 330°
2026-04-27 16:48 -22.09914 -51.56032 3980 ft 162 kts 329°
2026-04-27 16:48 -22.08926 -51.56630 4151 ft 161 kts 330°
2026-04-27 16:49 -22.06948 -51.57826 4467 ft 161 kts 329°
2026-04-27 16:49 -22.06062 -51.58362 4601 ft 161 kts 330°
2026-04-27 16:49 -22.05075 -51.58958 4759 ft 161 kts 329°
2026-04-27 16:49 -22.04087 -51.59556 4899 ft 160 kts 329°
2026-04-27 16:50 -22.03144 -51.60126 5043 ft 160 kts 329°
2026-04-27 16:50 -22.02159 -51.60721 5187 ft 160 kts 329°
2026-04-27 16:50 -22.01176 -51.61314 5330 ft 160 kts 329°
2026-04-27 16:50 -22.00202 -51.61903 5463 ft 160 kts 329°
2026-04-27 16:51 -21.99220 -51.62496 5598 ft 159 kts 329°
2026-04-27 16:51 -21.98255 -51.63078 5738 ft 159 kts 329°
2026-04-27 16:51 -21.97272 -51.63672 5869 ft 159 kts 330°
2026-04-27 16:51 -21.96306 -51.64255 6008 ft 158 kts 329°
2026-04-27 16:52 -21.95359 -51.64827 6124 ft 158 kts 329°
2026-04-27 16:52 -21.94394 -51.65409 6247 ft 158 kts 330°
2026-04-27 16:52 -21.93512 -51.65941 6369 ft 158 kts 330°
2026-04-27 16:52 -21.92576 -51.66505 6498 ft 158 kts 330°
2026-04-27 16:53 -21.91598 -51.67096 6631 ft 158 kts 329°
2026-04-27 16:53 -21.90637 -51.67675 6752 ft 158 kts 329°
2026-04-27 16:53 -21.89711 -51.68233 6855 ft 158 kts 329°
2026-04-27 16:53 -21.88735 -51.68822 6980 ft 158 kts 329°
2026-04-27 16:54 -21.87768 -51.69405 7029 ft 163 kts 329°
2026-04-27 16:54 -21.86735 -51.70029 6979 ft 171 kts 328°
2026-04-27 16:54 -21.85673 -51.70672 6967 ft 175 kts 329°
2026-04-27 16:54 -21.84587 -51.71327 6972 ft 178 kts 329°
2026-04-27 16:55 -21.83500 -51.71982 6969 ft 180 kts 329°
2026-04-27 16:55 -21.82383 -51.72654 6965 ft 182 kts 329°
2026-04-27 16:55 -21.81273 -51.73323 6965 ft 183 kts 329°
2026-04-27 16:55 -21.80166 -51.73989 6966 ft 183 kts 329°
2026-04-27 16:56 -21.79021 -51.74680 6962 ft 184 kts 329°
2026-04-27 16:56 -21.77896 -51.75357 6961 ft 185 kts 329°
2026-04-27 16:56 -21.76756 -51.76044 6965 ft 185 kts 329°
2026-04-27 16:56 -21.75608 -51.76736 6962 ft 185 kts 329°
2026-04-27 16:57 -21.74473 -51.77419 6962 ft 186 kts 329°
2026-04-27 16:57 -21.73335 -51.78104 6960 ft 186 kts 329°
2026-04-27 16:57 -21.72185 -51.78795 6960 ft 186 kts 329°
2026-04-27 16:57 -21.71051 -51.79477 6958 ft 186 kts 329°
2026-04-27 16:58 -21.69922 -51.80156 6961 ft 186 kts 329°
2026-04-27 16:58 -21.68778 -51.80843 6958 ft 186 kts 329°
2026-04-27 16:58 -21.67635 -51.81530 6956 ft 186 kts 329°
2026-04-27 16:58 -21.66489 -51.82218 6957 ft 186 kts 329°
2026-04-27 16:59 -21.65351 -51.82901 6957 ft 186 kts 329°
2026-04-27 16:59 -21.64221 -51.83580 6956 ft 186 kts 329°
2026-04-27 16:59 -21.63086 -51.84261 6954 ft 186 kts 329°
2026-04-27 16:59 -21.61952 -51.84942 6955 ft 186 kts 329°
2026-04-27 17:00 -21.60068 -51.86072 6957 ft 185 kts 329°
2026-04-27 17:00 -21.58552 -51.86982 6961 ft 185 kts 329°
2026-04-27 17:00 -21.57422 -51.87660 6959 ft 186 kts 329°
2026-04-27 17:01 -21.56288 -51.88339 6961 ft 186 kts 329°
2026-04-27 17:01 -21.55160 -51.89016 6960 ft 186 kts 329°
2026-04-27 17:01 -21.54023 -51.89697 6955 ft 186 kts 329°
2026-04-27 17:01 -21.52889 -51.90377 6957 ft 186 kts 329°
2026-04-27 17:02 -21.51743 -51.91064 6958 ft 186 kts 329°
2026-04-27 17:02 -21.50616 -51.91739 6961 ft 185 kts 329°
2026-04-27 17:02 -21.49486 -51.92417 6965 ft 186 kts 329°
2026-04-27 17:02 -21.48337 -51.93078 6963 ft 186 kts 337°
2026-04-27 17:03 -21.47036 -51.93168 6960 ft 189 kts
2026-04-27 17:03 -21.45718 -51.93037 6972 ft 189 kts
2026-04-27 17:03 -21.44381 -51.92923 6960 ft 190 kts
2026-04-27 17:03 -21.43073 -51.92826 6956 ft 190 kts
2026-04-27 17:04 -21.41745 -51.92736 6959 ft 190 kts
2026-04-27 17:04 -21.40392 -51.92650 6963 ft 190 kts 360°
2026-04-27 17:04 -21.39070 -51.92571 6961 ft 190 kts 360°
2026-04-27 17:04 -21.37730 -51.92493 6963 ft 190 kts 360°
2026-04-27 17:05 -21.36392 -51.92417 6960 ft 190 kts 360°
2026-04-27 17:05 -21.35067 -51.92343 6963 ft 190 kts 360°
2026-04-27 17:05 -21.33727 -51.92269 6965 ft 190 kts 360°
2026-04-27 17:05 -21.32403 -51.92196 6964 ft 190 kts 360°
2026-04-27 17:06 -21.31076 -51.92123 6962 ft 190 kts
2026-04-27 17:06 -21.29752 -51.92051 6957 ft 191 kts
2026-04-27 17:06 -21.28414 -51.91978 6957 ft 190 kts
2026-04-27 17:06 -21.27088 -51.91905 6959 ft 190 kts
2026-04-27 17:07 -21.25754 -51.91832 6959 ft 190 kts
2026-04-27 17:07 -21.24421 -51.91759 6960 ft 191 kts 360°
2026-04-27 17:07 -21.23078 -51.91686 6958 ft 191 kts
2026-04-27 17:07 -21.21740 -51.91613 6958 ft 191 kts 360°
2026-04-27 17:08 -21.20410 -51.91540 6959 ft 191 kts 360°
2026-04-27 17:08 -21.19060 -51.91467 6960 ft 191 kts 360°
2026-04-27 17:08 -21.17729 -51.91395 6961 ft 191 kts
2026-04-27 17:08 -21.16398 -51.91322 6957 ft 191 kts 360°
2026-04-27 17:09 -21.15047 -51.91249 6960 ft 191 kts
2026-04-27 17:09 -21.13721 -51.91177 6960 ft 191 kts
2026-04-27 17:09 -21.12385 -51.91105 6958 ft 191 kts
2026-04-27 17:09 -21.11054 -51.91032 6955 ft 191 kts
2026-04-27 17:10 -21.09712 -51.90959 6956 ft 191 kts
2026-04-27 17:10 -21.08381 -51.90887 6955 ft 191 kts
2026-04-27 17:10 -21.07031 -51.90813 6955 ft 191 kts
2026-04-27 17:10 -21.05704 -51.90741 6955 ft 191 kts
2026-04-27 17:11 -21.04372 -51.90669 6954 ft 191 kts
2026-04-27 17:11 -21.01683 -51.90522 6953 ft 191 kts 360°
2026-04-27 17:11 -21.00359 -51.90451 6949 ft 191 kts
2026-04-27 17:12 -20.97682 -51.90305 6953 ft 191 kts
2026-04-27 17:12 -20.96361 -51.90234 6955 ft 191 kts
2026-04-27 17:12 -20.95003 -51.90160 6954 ft 191 kts
2026-04-27 17:13 -20.93669 -51.90088 6952 ft 191 kts
2026-04-27 17:13 -20.92337 -51.90016 6954 ft 191 kts
2026-04-27 17:13 -20.91000 -51.89943 6957 ft 191 kts
2026-04-27 17:13 -20.89669 -51.89871 6958 ft 191 kts
2026-04-27 17:14 -20.88323 -51.89798 6960 ft 191 kts
2026-04-27 17:14 -20.86991 -51.89726 6959 ft 191 kts
2026-04-27 17:14 -20.85629 -51.89652 6958 ft 191 kts
2026-04-27 17:14 -20.84283 -51.89579 6957 ft 191 kts
2026-04-27 17:15 -20.82949 -51.89506 6958 ft 191 kts
2026-04-27 17:15 -20.81612 -51.89434 6957 ft 191 kts
2026-04-27 17:15 -20.80265 -51.89361 6957 ft 191 kts
2026-04-27 17:15 -20.78939 -51.89289 6958 ft 192 kts
2026-04-27 17:16 -20.77585 -51.89216 6956 ft 192 kts
2026-04-27 17:16 -20.76241 -51.89143 6955 ft 192 kts
2026-04-27 17:16 -20.74900 -51.89070 6955 ft 192 kts
2026-04-27 17:16 -20.73543 -51.88998 6951 ft 192 kts
2026-04-27 17:17 -20.72202 -51.88925 6956 ft 192 kts
2026-04-27 17:17 -20.70855 -51.88852 6957 ft 192 kts
2026-04-27 17:17 -20.69491 -51.88778 6957 ft 192 kts
2026-04-27 17:18 -20.66869 -51.88636 6951 ft 192 kts
2026-04-27 17:18 -20.65534 -51.88564 6947 ft 192 kts
2026-04-27 17:18 -20.64175 -51.88491 6945 ft 192 kts
2026-04-27 17:18 -20.62835 -51.88418 6944 ft 192 kts
2026-04-27 17:19 -20.61501 -51.88346 6945 ft 192 kts
2026-04-27 17:19 -20.60148 -51.88273 6949 ft 192 kts
2026-04-27 17:19 -20.58849 -51.88203 6949 ft 192 kts
2026-04-27 17:19 -20.57551 -51.88133 6950 ft 192 kts
2026-04-27 17:20 -20.56200 -51.88060 6951 ft 192 kts
2026-04-27 17:20 -20.54846 -51.87987 6948 ft 192 kts
2026-04-27 17:20 -20.53509 -51.87915 6948 ft 192 kts
2026-04-27 17:20 -20.52160 -51.87842 6947 ft 192 kts
2026-04-27 17:21 -20.50814 -51.87769 6947 ft 192 kts
2026-04-27 17:21 -20.49480 -51.87697 6950 ft 192 kts
2026-04-27 17:21 -20.48125 -51.87624 6948 ft 192 kts
2026-04-27 17:21 -20.46801 -51.87553 6951 ft 192 kts
2026-04-27 17:22 -20.45459 -51.87481 6948 ft 192 kts
2026-04-27 17:22 -20.44109 -51.87408 6950 ft 192 kts
2026-04-27 17:22 -20.42749 -51.87335 6951 ft 192 kts
2026-04-27 17:22 -20.41409 -51.87262 6955 ft 192 kts
2026-04-27 17:23 -20.40059 -51.87190 6955 ft 193 kts
2026-04-27 17:23 -20.38726 -51.87118 6953 ft 193 kts
2026-04-27 17:23 -20.37363 -51.87044 6949 ft 193 kts
2026-04-27 17:23 -20.36027 -51.86973 6950 ft 193 kts
2026-04-27 17:24 -20.34666 -51.86899 6951 ft 193 kts
2026-04-27 17:24 -20.33332 -51.86827 6953 ft 192 kts
2026-04-27 17:24 -20.31972 -51.86754 6955 ft 192 kts
2026-04-27 17:24 -20.30638 -51.86682 6954 ft 192 kts
2026-04-27 17:25 -20.29309 -51.86611 6958 ft 192 kts
2026-04-27 17:25 -20.27959 -51.86538 6961 ft 192 kts
2026-04-27 17:25 -20.26625 -51.86466 6964 ft 191 kts
2026-04-27 17:25 -20.25275 -51.86394 6967 ft 192 kts
2026-04-27 17:26 -20.23926 -51.86322 6969 ft 192 kts
2026-04-27 17:26 -20.22587 -51.86250 6972 ft 192 kts
2026-04-27 17:26 -20.21230 -51.86177 6975 ft 193 kts
2026-04-27 17:26 -20.19893 -51.86105 6971 ft 193 kts
2026-04-27 17:27 -20.18532 -51.86032 6974 ft 193 kts
2026-04-27 17:27 -20.17188 -51.85960 6974 ft 193 kts
2026-04-27 17:27 -20.15843 -51.85887 6968 ft 192 kts
2026-04-27 17:27 -20.14496 -51.85815 6970 ft 192 kts
2026-04-27 17:28 -20.13156 -51.85743 6976 ft 192 kts
2026-04-27 17:28 -20.11819 -51.85671 6980 ft 192 kts
2026-04-27 17:28 -20.09135 -51.85527 6977 ft 193 kts
2026-04-27 17:29 -20.07787 -51.85455 6979 ft 193 kts
2026-04-27 17:29 -20.06425 -51.85382 6978 ft 193 kts
2026-04-27 17:29 -20.05073 -51.85309 6980 ft 193 kts
2026-04-27 17:29 -20.03712 -51.85236 6979 ft 194 kts
2026-04-27 17:30 -20.02360 -51.85164 6970 ft 194 kts
2026-04-27 17:30 -19.99656 -51.85019 6967 ft 194 kts
2026-04-27 17:30 -19.98302 -51.84946 6967 ft 194 kts
2026-04-27 17:31 -19.96944 -51.84874 6967 ft 193 kts
2026-04-27 17:31 -19.95581 -51.84800 6967 ft 193 kts
2026-04-27 17:31 -19.94245 -51.84729 6966 ft 193 kts
2026-04-27 17:31 -19.92902 -51.84657 6965 ft 193 kts
2026-04-27 17:32 -19.91533 -51.84584 6969 ft 193 kts
2026-04-27 17:32 -19.88834 -51.84439 6975 ft 193 kts
2026-04-27 17:32 -19.87498 -51.84368 6974 ft 194 kts
2026-04-27 17:33 -19.86129 -51.84295 6974 ft 194 kts
2026-04-27 17:33 -19.84767 -51.84222 6980 ft 194 kts
2026-04-27 17:33 -19.83414 -51.84150 6976 ft 194 kts
2026-04-27 17:33 -19.82046 -51.84076 6973 ft 194 kts
2026-04-27 17:34 -19.80702 -51.84005 6973 ft 194 kts
2026-04-27 17:34 -19.79338 -51.83931 6973 ft 193 kts
2026-04-27 17:34 -19.77993 -51.83860 6971 ft 193 kts
2026-04-27 17:34 -19.76649 -51.83788 6967 ft 193 kts
2026-04-27 17:35 -19.75296 -51.83715 6973 ft 192 kts
2026-04-27 17:35 -19.73938 -51.83643 6973 ft 193 kts
2026-04-27 17:35 -19.72599 -51.83572 6970 ft 192 kts
2026-04-27 17:35 -19.71234 -51.83499 6972 ft 192 kts
2026-04-27 17:36 -19.69901 -51.83427 6978 ft 192 kts
2026-04-27 17:36 -19.68548 -51.83355 6985 ft 192 kts
2026-04-27 17:36 -19.67204 -51.83284 6991 ft 192 kts
2026-04-27 17:36 -19.65867 -51.83213 6991 ft 193 kts
2026-04-27 17:37 -19.64518 -51.83141 6995 ft 193 kts
2026-04-27 17:37 -19.63159 -51.83068 6990 ft 193 kts
2026-04-27 17:37 -19.61806 -51.82996 6991 ft 193 kts
2026-04-27 17:37 -19.60451 -51.82923 6995 ft 193 kts
2026-04-27 17:38 -19.59097 -51.82851 7000 ft 192 kts
2026-04-27 17:38 -19.57748 -51.82779 7002 ft 192 kts
2026-04-27 17:38 -19.56409 -51.82708 7006 ft 193 kts
2026-04-27 17:38 -19.55054 -51.82636 7005 ft 193 kts
2026-04-27 17:39 -19.53717 -51.82564 7005 ft 193 kts
2026-04-27 17:39 -19.52366 -51.82493 7000 ft 193 kts
2026-04-27 17:39 -19.51014 -51.82421 7008 ft 192 kts
2026-04-27 17:39 -19.49679 -51.82349 7014 ft 192 kts
2026-04-27 17:40 -19.48327 -51.82277 7015 ft 192 kts
2026-04-27 17:40 -19.46993 -51.82206 7011 ft 193 kts
2026-04-27 17:40 -19.45644 -51.82134 7009 ft 192 kts
2026-04-27 17:40 -19.44294 -51.82063 7004 ft 192 kts
2026-04-27 17:41 -19.42953 -51.81992 7007 ft 192 kts
2026-04-27 17:41 -19.41592 -51.81920 7006 ft 192 kts
2026-04-27 17:41 -19.40248 -51.81848 7004 ft 193 kts
2026-04-27 17:41 -19.38904 -51.81776 7003 ft 193 kts
2026-04-27 17:42 -19.37546 -51.81704 7000 ft 193 kts
2026-04-27 17:42 -19.36184 -51.81632 6999 ft 193 kts
2026-04-27 17:42 -19.34821 -51.81559 6996 ft 193 kts
2026-04-27 17:42 -19.33459 -51.81487 7002 ft 193 kts
2026-04-27 17:43 -19.32108 -51.81415 7003 ft 194 kts
2026-04-27 17:43 -19.30733 -51.81342 7006 ft 194 kts
2026-04-27 17:43 -19.29375 -51.81270 7009 ft 194 kts
2026-04-27 17:43 -19.28010 -51.81197 7006 ft 195 kts
2026-04-27 17:44 -19.26638 -51.81124 7002 ft 195 kts
2026-04-27 17:44 -19.25270 -51.81051 7002 ft 195 kts
2026-04-27 17:44 -19.23900 -51.80979 7001 ft 196 kts
2026-04-27 17:44 -19.22536 -51.80906 7000 ft 196 kts
2026-04-27 17:45 -19.21167 -51.80833 6993 ft 196 kts
2026-04-27 17:45 -19.19785 -51.80761 6987 ft 195 kts
2026-04-27 17:45 -19.18413 -51.80688 6990 ft 195 kts
2026-04-27 17:45 -19.17045 -51.80615 6990 ft 195 kts
2026-04-27 17:46 -19.15749 -51.80547 6989 ft 195 kts
2026-04-27 17:46 -19.14363 -51.80473 6986 ft 195 kts
2026-04-27 17:46 -19.13006 -51.80401 6984 ft 194 kts
2026-04-27 17:46 -19.11640 -51.80329 6986 ft 194 kts
2026-04-27 17:47 -19.10275 -51.80256 6992 ft 193 kts
2026-04-27 17:47 -19.09372 -51.80208 6992 ft 193 kts
2026-04-27 17:47 -19.07568 -51.80113 6991 ft 193 kts
2026-04-27 17:47 -19.06220 -51.80041 6995 ft 193 kts
2026-04-27 17:48 -19.04855 -51.79969 7002 ft 194 kts
2026-04-27 17:48 -19.03496 -51.79897 7000 ft 194 kts
2026-04-27 17:48 -19.02140 -51.79825 6997 ft 195 kts
2026-04-27 17:48 -19.00767 -51.79753 6997 ft 195 kts
2026-04-27 17:49 -18.99398 -51.79680 6999 ft 195 kts
2026-04-27 17:49 -18.98015 -51.79607 6996 ft 195 kts
2026-04-27 17:49 -18.96634 -51.79534 6995 ft 194 kts
2026-04-27 17:49 -18.95271 -51.79462 6997 ft 194 kts
2026-04-27 17:50 -18.93912 -51.79390 6992 ft 194 kts
2026-04-27 17:50 -18.91198 -51.79246 6991 ft 194 kts
2026-04-27 17:50 -18.89810 -51.79173 6992 ft 194 kts
2026-04-27 17:51 -18.88426 -51.79100 6999 ft 194 kts
2026-04-27 17:51 -18.87050 -51.79026 6997 ft 194 kts
2026-04-27 17:51 -18.85699 -51.78956 7000 ft 194 kts
2026-04-27 17:51 -18.84348 -51.78885 7000 ft 194 kts
2026-04-27 17:52 -18.83512 -51.78840 7003 ft 194 kts
2026-04-27 17:52 -18.82225 -51.78773 6996 ft 194 kts
2026-04-27 17:52 -18.80838 -51.78699 7008 ft 194 kts
2026-04-27 17:52 -18.79473 -51.78627 7010 ft 194 kts
2026-04-27 17:53 -18.78127 -51.78556 7007 ft 194 kts
2026-04-27 17:53 -18.76766 -51.78484 7002 ft 194 kts
2026-04-27 17:53 -18.75414 -51.78413 7006 ft 193 kts
2026-04-27 17:53 -18.74053 -51.78341 7007 ft 193 kts
2026-04-27 17:54 -18.72702 -51.78270 7007 ft 194 kts
2026-04-27 17:54 -18.71349 -51.78198 7009 ft 194 kts
2026-04-27 17:54 -18.69995 -51.78126 7015 ft 194 kts
2026-04-27 17:54 -18.68646 -51.78056 7013 ft 195 kts
2026-04-27 17:55 -18.67269 -51.77983 7005 ft 195 kts
2026-04-27 17:55 -18.65911 -51.77911 7013 ft 194 kts
2026-04-27 17:55 -18.64558 -51.77840 7012 ft 194 kts
2026-04-27 17:55 -18.63174 -51.77767 7017 ft 194 kts
2026-04-27 17:56 -18.61818 -51.77696 7014 ft 194 kts
2026-04-27 17:56 -18.60461 -51.77624 7014 ft 194 kts
2026-04-27 17:56 -18.59108 -51.77553 7013 ft 194 kts
2026-04-27 17:56 -18.57735 -51.77481 7016 ft 194 kts
2026-04-27 17:57 -18.56379 -51.77410 7001 ft 194 kts
2026-04-27 17:57 -18.55032 -51.77338 7014 ft 194 kts
2026-04-27 17:57 -18.53665 -51.77266 7016 ft 193 kts
2026-04-27 17:57 -18.52325 -51.77195 7020 ft 193 kts
2026-04-27 17:58 -18.50961 -51.77124 7014 ft 194 kts
2026-04-27 17:58 -18.49600 -51.77052 7016 ft 195 kts
2026-04-27 17:58 -18.48235 -51.76981 7010 ft 195 kts
2026-04-27 17:58 -18.46864 -51.76909 7016 ft 195 kts
2026-04-27 17:59 -18.45495 -51.76837 7003 ft 195 kts
2026-04-27 17:59 -18.44142 -51.76765 7002 ft 195 kts
2026-04-27 17:59 -18.42769 -51.76693 7014 ft 194 kts
2026-04-27 17:59 -18.41405 -51.76622 7025 ft 194 kts
2026-04-27 18:00 -18.40053 -51.76550 7027 ft 195 kts
2026-04-27 18:00 -18.38694 -51.76479 7025 ft 195 kts
2026-04-27 18:00 -18.37313 -51.76407 7029 ft 196 kts
2026-04-27 18:00 -18.35943 -51.76334 7033 ft 197 kts
2026-04-27 18:01 -18.34564 -51.76262 7026 ft 198 kts
2026-04-27 18:01 -18.33174 -51.76189 7026 ft 198 kts
2026-04-27 18:01 -18.31797 -51.76116 7027 ft 198 kts
2026-04-27 18:01 -18.30406 -51.76043 7022 ft 198 kts
2026-04-27 18:02 -18.29006 -51.75970 7034 ft 198 kts
2026-04-27 18:02 -18.27637 -51.75898 7041 ft 198 kts
2026-04-27 18:02 -18.26242 -51.75825 7041 ft 199 kts
2026-04-27 18:02 -18.24833 -51.75751 7027 ft 199 kts
2026-04-27 18:03 -18.23455 -51.75678 7024 ft 199 kts
2026-04-27 18:03 -18.22067 -51.75605 7034 ft 198 kts
2026-04-27 18:03 -18.20684 -51.75532 7040 ft 197 kts
2026-04-27 18:03 -18.19307 -51.75460 7049 ft 198 kts
2026-04-27 18:04 -18.17907 -51.75387 7043 ft 198 kts
2026-04-27 18:04 -18.16509 -51.75314 7040 ft 199 kts
2026-04-27 18:04 -18.15116 -51.75241 7046 ft 199 kts
2026-04-27 18:04 -18.13722 -51.75168 7046 ft 199 kts
2026-04-27 18:05 -18.12347 -51.75096 7035 ft 199 kts
2026-04-27 18:05 -18.10949 -51.75023 7037 ft 198 kts
2026-04-27 18:05 -18.09554 -51.74950 7045 ft 198 kts
2026-04-27 18:05 -18.08162 -51.74877 7045 ft 198 kts
2026-04-27 18:06 -18.06777 -51.74804 7047 ft 198 kts
2026-04-27 18:06 -18.05394 -51.74732 7044 ft 199 kts
2026-04-27 18:06 -18.04002 -51.74659 7039 ft 199 kts
2026-04-27 18:06 -18.02607 -51.74587 7043 ft 198 kts
2026-04-27 18:07 -18.01216 -51.74513 7046 ft 198 kts
2026-04-27 18:07 -17.99844 -51.74441 7046 ft 198 kts
2026-04-27 18:07 -17.98444 -51.74368 7064 ft 198 kts
2026-04-27 18:07 -17.97056 -51.74296 7073 ft 199 kts
2026-04-27 18:08 -17.95651 -51.74223 7072 ft 200 kts
2026-04-27 18:08 -17.94257 -51.74150 7071 ft 200 kts
2026-04-27 18:08 -17.92847 -51.74076 7066 ft 201 kts
2026-04-27 18:08 -17.91451 -51.74003 7070 ft 201 kts
2026-04-27 18:09 -17.90053 -51.73930 7074 ft 201 kts
2026-04-27 18:09 -17.88636 -51.73856 7067 ft 201 kts
2026-04-27 18:09 -17.87219 -51.73782 7068 ft 200 kts
2026-04-27 18:09 -17.85820 -51.73708 7072 ft 200 kts
2026-04-27 18:10 -17.84410 -51.73635 7073 ft 200 kts
2026-04-27 18:10 -17.83035 -51.73853 7075 ft 199 kts 343°
2026-04-27 18:10 -17.81700 -51.74288 7085 ft 198 kts 341°
2026-04-27 18:10 -17.80375 -51.74725 7090 ft 199 kts 341°
2026-04-27 18:11 -17.79053 -51.75165 7074 ft 199 kts 342°
2026-04-27 18:11 -17.77731 -51.75605 7072 ft 199 kts 342°
2026-04-27 18:11 -17.76403 -51.76047 7073 ft 198 kts 341°
2026-04-27 18:11 -17.75076 -51.76490 7076 ft 198 kts 341°
2026-04-27 18:12 -17.73747 -51.76934 7085 ft 198 kts 342°
2026-04-27 18:12 -17.72421 -51.77377 7076 ft 200 kts 341°
2026-04-27 18:12 -17.71086 -51.77822 7059 ft 200 kts 342°
2026-04-27 18:12 -17.69765 -51.78263 7050 ft 200 kts 342°
2026-04-27 18:13 -17.68430 -51.78708 7060 ft 199 kts 342°
2026-04-27 18:13 -17.67117 -51.79146 7068 ft 199 kts 342°
2026-04-27 18:13 -17.65780 -51.79593 7075 ft 199 kts 341°
2026-04-27 18:13 -17.64454 -51.80035 7069 ft 199 kts 342°
2026-04-27 18:14 -17.63124 -51.80478 7073 ft 199 kts 341°
2026-04-27 18:14 -17.61801 -51.80920 7064 ft 199 kts 341°
2026-04-27 18:14 -17.60468 -51.81365 7059 ft 199 kts 341°
2026-04-27 18:14 -17.59140 -51.81808 7060 ft 198 kts 342°
2026-04-27 18:15 -17.57821 -51.82248 7072 ft 197 kts 342°
2026-04-27 18:15 -17.56515 -51.82684 7067 ft 197 kts 342°
2026-04-27 18:15 -17.55198 -51.83122 7065 ft 197 kts 342°
2026-04-27 18:15 -17.53875 -51.83564 7066 ft 197 kts 342°
2026-04-27 18:16 -17.52566 -51.84000 7065 ft 197 kts 342°
2026-04-27 18:16 -17.51260 -51.84434 7069 ft 197 kts 342°
2026-04-27 18:16 -17.49929 -51.84878 7076 ft 197 kts 342°
2026-04-27 18:16 -17.48617 -51.85315 7065 ft 197 kts 342°
2026-04-27 18:17 -17.47304 -51.85752 7072 ft 197 kts 342°
2026-04-27 18:17 -17.45995 -51.86188 7078 ft 197 kts 342°
2026-04-27 18:17 -17.44677 -51.86626 7078 ft 198 kts 342°
2026-04-27 18:17 -17.43355 -51.87067 7073 ft 198 kts 342°
2026-04-27 18:18 -17.42018 -51.87511 7076 ft 198 kts 342°
2026-04-27 18:18 -17.40680 -51.87957 7078 ft 198 kts 342°
2026-04-27 18:18 -17.39371 -51.88393 7076 ft 198 kts 342°
2026-04-27 18:18 -17.38043 -51.88835 7082 ft 198 kts 342°
2026-04-27 18:19 -17.36741 -51.89268 7080 ft 198 kts 343°
2026-04-27 18:19 -17.35406 -51.89711 7071 ft 198 kts 342°
2026-04-27 18:19 -17.34083 -51.90152 7067 ft 198 kts 342°
2026-04-27 18:19 -17.32763 -51.90590 7075 ft 198 kts 342°
2026-04-27 18:20 -17.31439 -51.91031 7079 ft 198 kts 342°
2026-04-27 18:20 -17.30109 -51.91473 7079 ft 198 kts 342°
2026-04-27 18:20 -17.28775 -51.91916 7086 ft 199 kts 342°
2026-04-27 18:20 -17.27460 -51.92353 7085 ft 199 kts 343°
2026-04-27 18:21 -17.26118 -51.92798 7076 ft 199 kts 342°
2026-04-27 18:21 -17.24781 -51.93242 7077 ft 199 kts 342°
2026-04-27 18:21 -17.23464 -51.93680 7081 ft 198 kts 342°
2026-04-27 18:21 -17.22135 -51.94122 7075 ft 198 kts 342°
2026-04-27 18:22 -17.20813 -51.94560 7074 ft 198 kts 342°
2026-04-27 18:22 -17.19490 -51.95000 7079 ft 198 kts 343°
2026-04-27 18:22 -17.18164 -51.95440 7078 ft 198 kts 343°
2026-04-27 18:22 -17.16869 -51.95869 7077 ft 198 kts 342°
2026-04-27 18:23 -17.15535 -51.96312 7073 ft 199 kts 342°
2026-04-27 18:23 -17.14288 -51.96726 7071 ft 199 kts 343°
2026-04-27 18:23 -17.12955 -51.97168 7072 ft 199 kts 342°
2026-04-27 18:23 -17.11630 -51.97607 7077 ft 199 kts 342°
2026-04-27 18:24 -17.10314 -51.98044 7076 ft 199 kts 342°
2026-04-27 18:24 -17.08970 -51.98489 7065 ft 200 kts 342°
2026-04-27 18:24 -17.07632 -51.98933 7068 ft 200 kts 342°
2026-04-27 18:24 -17.06295 -51.99376 7074 ft 200 kts 342°
2026-04-27 18:25 -17.04973 -51.99814 7074 ft 200 kts 343°
2026-04-27 18:25 -17.03627 -52.00261 7070 ft 200 kts 343°
2026-04-27 18:25 -17.02288 -52.00704 7067 ft 200 kts 342°
2026-04-27 18:25 -17.00965 -52.01142 7060 ft 200 kts 342°
2026-04-27 18:26 -16.99625 -52.01586 7057 ft 200 kts 343°
2026-04-27 18:26 -16.98304 -52.02023 7057 ft 199 kts 342°
2026-04-27 18:26 -16.96959 -52.02468 7062 ft 199 kts 342°
2026-04-27 18:26 -16.95635 -52.02907 7062 ft 200 kts 342°
2026-04-27 18:27 -16.94279 -52.03356 7058 ft 200 kts 343°
2026-04-27 18:27 -16.92947 -52.03796 7060 ft 201 kts 343°
2026-04-27 18:27 -16.91584 -52.04248 7065 ft 201 kts 343°
2026-04-27 18:27 -16.90253 -52.04688 7048 ft 202 kts 343°
2026-04-27 18:28 -16.88887 -52.05140 7035 ft 201 kts 342°
2026-04-27 18:28 -16.87548 -52.05583 7060 ft 200 kts 343°
2026-04-27 18:28 -16.86217 -52.06023 7049 ft 201 kts 343°
2026-04-27 18:28 -16.84858 -52.06473 7038 ft 201 kts 342°
2026-04-27 18:29 -16.83511 -52.06918 7037 ft 200 kts 343°
2026-04-27 18:29 -16.82164 -52.07364 7037 ft 200 kts 343°
2026-04-27 18:29 -16.80833 -52.07803 7031 ft 201 kts 342°
2026-04-27 18:29 -16.79480 -52.08250 7033 ft 201 kts 343°
2026-04-27 18:30 -16.78136 -52.08694 7026 ft 201 kts 342°
2026-04-27 18:30 -16.76800 -52.09136 7026 ft 200 kts 343°
2026-04-27 18:30 -16.75462 -52.09578 7027 ft 200 kts 343°
2026-04-27 18:30 -16.74118 -52.10022 7020 ft 201 kts 343°
2026-04-27 18:31 -16.72775 -52.10465 7017 ft 201 kts 343°
2026-04-27 18:31 -16.71424 -52.10912 7012 ft 200 kts 343°
2026-04-27 18:31 -16.70085 -52.11354 7020 ft 200 kts 343°
2026-04-27 18:31 -16.68742 -52.11797 7018 ft 200 kts 343°
2026-04-27 18:32 -16.67399 -52.12240 7012 ft 200 kts 343°
2026-04-27 18:32 -16.66071 -52.12679 7009 ft 200 kts 343°
2026-04-27 18:32 -16.64722 -52.13124 7011 ft 200 kts 343°
2026-04-27 18:32 -16.63379 -52.13566 7015 ft 200 kts 343°
2026-04-27 18:33 -16.62053 -52.14004 7023 ft 200 kts 343°
2026-04-27 18:33 -16.60710 -52.14447 7028 ft 200 kts 343°
2026-04-27 18:33 -16.59384 -52.14883 7022 ft 201 kts 342°
2026-04-27 18:33 -16.58030 -52.15331 7021 ft 201 kts 343°
2026-04-27 18:34 -16.56698 -52.15769 7030 ft 200 kts 343°
2026-04-27 18:34 -16.55355 -52.16212 7029 ft 201 kts 343°
2026-04-27 18:34 -16.54017 -52.16653 7036 ft 201 kts 343°
2026-04-27 18:34 -16.52678 -52.17095 7037 ft 201 kts 343°
2026-04-27 18:35 -16.51339 -52.17536 7032 ft 202 kts 343°
2026-04-27 18:35 -16.49987 -52.17981 7035 ft 202 kts 343°
2026-04-27 18:35 -16.48646 -52.18422 7035 ft 201 kts 343°
2026-04-27 18:35 -16.47298 -52.18867 7033 ft 202 kts 343°
2026-04-27 18:36 -16.45942 -52.19313 7028 ft 202 kts 343°
2026-04-27 18:36 -16.44585 -52.19759 7026 ft 201 kts 343°
2026-04-27 18:36 -16.43242 -52.20202 7028 ft 201 kts 343°
2026-04-27 18:36 -16.41893 -52.20645 7027 ft 202 kts 343°
2026-04-27 18:37 -16.40552 -52.21087 7017 ft 202 kts 343°
2026-04-27 18:37 -16.39212 -52.21528 7016 ft 202 kts 343°
2026-04-27 18:37 -16.37855 -52.21974 7013 ft 202 kts 343°
2026-04-27 18:37 -16.36500 -52.22420 7015 ft 202 kts 343°
2026-04-27 18:38 -16.35168 -52.22858 7017 ft 202 kts 343°
2026-04-27 18:38 -16.33805 -52.23306 7017 ft 203 kts 343°
2026-04-27 18:38 -16.32446 -52.23753 7013 ft 203 kts 343°
2026-04-27 18:38 -16.31094 -52.24195 7018 ft 204 kts 343°
2026-04-27 18:39 -16.29722 -52.24643 7009 ft 205 kts 343°
2026-04-27 18:39 -16.28368 -52.25087 7005 ft 205 kts 343°
2026-04-27 18:39 -16.26983 -52.25542 7012 ft 205 kts 343°
2026-04-27 18:39 -16.25610 -52.25993 7007 ft 206 kts 343°
2026-04-27 18:40 -16.24234 -52.26445 7002 ft 206 kts 343°
2026-04-27 18:40 -16.22854 -52.26898 6998 ft 206 kts 343°
2026-04-27 18:40 -16.21468 -52.27353 7004 ft 206 kts 343°
2026-04-27 18:40 -16.20087 -52.27807 7005 ft 206 kts 343°
2026-04-27 18:41 -16.18705 -52.28260 7003 ft 207 kts 343°
2026-04-27 18:41 -16.17317 -52.28716 7005 ft 207 kts 343°
2026-04-27 18:41 -16.15934 -52.29170 7003 ft 207 kts 343°
2026-04-27 18:41 -16.14593 -52.29610 7004 ft 206 kts 343°
2026-04-27 18:42 -16.13218 -52.30061 7007 ft 206 kts 343°
2026-04-27 18:42 -16.12294 -52.30364 7006 ft 207 kts 343°
2026-04-27 18:42 -16.10448 -52.30970 7004 ft 207 kts 343°
2026-04-27 18:42 -16.09069 -52.31422 7003 ft 207 kts 343°
2026-04-27 18:43 -16.07698 -52.31872 7001 ft 207 kts 343°
2026-04-27 18:43 -16.06310 -52.32327 7000 ft 207 kts 343°
2026-04-27 18:43 -16.04926 -52.32780 6998 ft 208 kts 343°
2026-04-27 18:43 -16.03524 -52.33240 6999 ft 208 kts 343°
2026-04-27 18:44 -16.02132 -52.33696 6994 ft 208 kts 344°
2026-04-27 18:44 -16.00709 -52.33743 6959 ft 205 kts 15°
2026-04-27 18:44 -15.99374 -52.33134 6820 ft 211 kts 31°
2026-04-27 18:44 -15.98140 -52.32318 6700 ft 210 kts 35°
2026-04-27 18:45 -15.96934 -52.31427 6570 ft 208 kts 37°
2026-04-27 18:45 -15.95760 -52.30526 6348 ft 206 kts 37°
2026-04-27 18:45 -15.94632 -52.29649 6126 ft 199 kts 38°
2026-04-27 18:45 -15.93607 -52.28848 5907 ft 195 kts 38°
2026-04-27 18:46 -15.92550 -52.28021 5676 ft 193 kts 37°
2026-04-27 18:46 -15.91469 -52.27174 5439 ft 191 kts 38°
2026-04-27 18:46 -15.90409 -52.26344 5206 ft 190 kts 38°
2026-04-27 18:46 -15.89389 -52.25546 4985 ft 190 kts 38°
2026-04-27 18:47 -15.88327 -52.24714 4868 ft 188 kts 38°
2026-04-27 18:47 -15.87282 -52.23895 4949 ft 181 kts 38°
2026-04-27 18:47 -15.86302 -52.23127 4963 ft 174 kts 38°
2026-04-27 18:47 -15.85356 -52.22386 4968 ft 177 kts 38°
2026-04-27 18:48 -15.84350 -52.21599 4964 ft 182 kts 38°
2026-04-27 18:48 -15.83315 -52.20788 4942 ft 187 kts 38°
2026-04-27 18:48 -15.82171 -52.20072 4800 ft 197 kts 15°
2026-04-27 18:48 -15.80817 -52.20251 4641 ft 204 kts 333°
2026-04-27 18:49 -15.79634 -52.21131 4522 ft 208 kts 323°
2026-04-27 18:49 -15.78526 -52.22052 4401 ft 199 kts 322°
2026-04-27 18:49 -15.77477 -52.22932 4301 ft 189 kts 322°
2026-04-27 18:49 -15.76487 -52.23770 4336 ft 176 kts 320°
2026-04-27 18:50 -15.75944 -52.24841 4394 ft 169 kts 276°
2026-04-27 18:50 -15.76238 -52.25976 4377 ft 158 kts 237°
2026-04-27 18:50 -15.76843 -52.26901 4373 ft 148 kts 233°
2026-04-27 18:50 -15.77441 -52.27734 4381 ft 142 kts 231°
2026-04-27 18:51 -15.78056 -52.28550 4290 ft 145 kts 230°
2026-04-27 18:51 -15.78706 -52.29391 4162 ft 149 kts 230°
2026-04-27 18:51 -15.79368 -52.30240 3959 ft 150 kts 230°
2026-04-27 18:51 -15.80012 -52.31072 3702 ft 146 kts 230°
2026-04-27 18:52 -15.80644 -52.31883 3427 ft 145 kts 230°
2026-04-27 18:52 -15.81249 -52.32656 3107 ft 148 kts 230°
2026-04-27 18:52 -15.81910 -52.33497 2746 ft 149 kts 230°
2026-04-27 18:53 -15.83156 -52.35080 2420 ft 128 kts 230°
2026-04-27 18:53 -15.83711 -52.35839 2089 ft 135 kts 232°
2026-04-27 18:53 -15.84307 -52.36585 1809 ft 134 kts 228°
2026-04-27 18:53 -15.84896 -52.37318 1515 ft 124 kts 229°
2026-04-27 18:54 -15.85440 -52.38004 1269 ft 124 kts 229°
2026-04-27 18:54 -15.85976 -52.38683 1192 ft 110 kts 228°
2026-04-27 18:54 -15.86419 -52.39236 1193 ft 70 kts 233°
2026-04-27 18:54 -15.86546 -52.39405 1190 ft 7 kts 228°
2026-04-27 18:55 -15.86596 -52.39442 1189 ft 12 kts 230°
2026-04-27 18:55 -15.86545 -52.39412 1190 ft 16 kts 51°
2026-04-27 18:55 -15.86462 -52.39305 1192 ft 21 kts 52°
2026-04-27 18:55 -15.86362 -52.39176 1193 ft 17 kts 50°
2026-04-27 18:56 -15.86318 -52.39175 1193 ft 10 kts 319°
2026-04-27 18:56 -15.86243 -52.39227 1195 ft 15 kts
2026-04-27 18:56 -15.86149 -52.39141 1196 ft 20 kts 49°
2026-04-27 18:56 -15.86061 -52.39034 1196 ft 19 kts 50°
2026-04-27 18:57 -15.85994 -52.38947 1195 ft 12 kts 48°
2026-04-27 18:57 -15.85945 -52.38935 1195 ft 9 kts 320°
2026-04-27 18:57 -15.85905 -52.38970 1196 ft 6 kts 319°
2026-04-27 18:57 -15.85896 -52.38977 1196 ft 0 kts 319°